TimeCDT,TemperatureF,Dew PointF,Humidity,Sea Level PressureIn,VisibilityMPH,Wind Direction,Wind SpeedMPH,Gust SpeedMPH,PrecipitationIn,Events,Conditions,WindDirDegrees,DateUTC
12:53 AM,77.0,70.0,79,29.88,10.0,West,5.8,-,N/A,,Clear,270,2013-07-20 05:53:00
1:53 AM,77.0,71.1,82,29.89,10.0,Calm,Calm,-,N/A,,Clear,0,2013-07-20 06:53:00
2:53 AM,75.9,72.0,87,29.88,10.0,South,4.6,-,N/A,,Clear,180,2013-07-20 07:53:00
3:53 AM,75.0,72.0,90,29.87,10.0,Calm,Calm,-,N/A,,Clear,0,2013-07-20 08:53:00
4:53 AM,75.0,72.0,90,29.88,10.0,Calm,Calm,-,N/A,,Clear,0,2013-07-20 09:53:00
5:53 AM,73.9,71.1,91,29.88,10.0,NNE,3.5,-,N/A,,Mostly Cloudy,20,2013-07-20 10:53:00
6:43 AM,75.0,71.1,87,29.93,10.0,SE,5.8,-,N/A,Thunderstorm,Overcast,140,2013-07-20 11:43:00
6:53 AM,75.9,71.1,85,29.90,10.0,SE,4.6,-,N/A,,Overcast,130,2013-07-20 11:53:00
7:53 AM,75.9,70.0,82,29.90,10.0,SE,3.5,-,0.00,,Scattered Clouds,140,2013-07-20 12:53:00
8:53 AM,78.1,69.1,74,29.89,10.0,South,5.8,-,N/A,,Mostly Cloudy,190,2013-07-20 13:53:00
9:53 AM,81.0,70.0,69,29.90,10.0,SSE,4.6,-,N/A,,Overcast,150,2013-07-20 14:53:00
10:53 AM,81.0,71.1,72,29.90,10.0,NNE,9.2,-,0.00,Rain,Light Rain,30,2013-07-20 15:53:00
11:53 AM,84.9,71.1,63,29.90,10.0,East,8.1,-,0.00,,Clear,90,2013-07-20 16:53:00
12:53 PM,88.0,69.1,53,29.89,10.0,North,-9999.0,-,N/A,,Partly Cloudy,0,2013-07-20 17:53:00
1:53 PM,87.1,70.0,57,29.89,10.0,SE,4.6,-,N/A,,Mostly Cloudy,140,2013-07-20 18:53:00
2:09 PM,87.1,70.0,57,29.91,10.0,ENE,5.8,-,N/A,Thunderstorm,Overcast,60,2013-07-20 19:09:00
2:24 PM,84.0,72.0,67,29.90,10.0,NNE,19.6,-,N/A,,Mostly Cloudy,20,2013-07-20 19:24:00
2:53 PM,81.0,70.0,69,29.90,10.0,NE,13.8,-,N/A,,Scattered Clouds,40,2013-07-20 19:53:00
3:53 PM,78.1,70.0,76,29.88,10.0,ENE,10.4,-,N/A,,Clear,60,2013-07-20 20:53:00
4:53 PM,78.1,72.0,81,29.90,10.0,NNW,10.4,-,0.00,,Partly Cloudy,340,2013-07-20 21:53:00
5:37 PM,78.1,70.0,76,29.92,10.0,South,8.1,-,N/A,Thunderstorm,Partly Cloudy,170,2013-07-20 22:37:00
5:53 PM,78.1,72.0,81,29.89,10.0,SSW,4.6,-,0.00,Rain,Light Rain,200,2013-07-20 22:53:00
6:53 PM,75.9,71.1,85,29.87,10.0,SSE,3.5,-,0.05,Rain,Light Rain,160,2013-07-20 23:53:00
7:53 PM,75.0,71.1,87,29.84,10.0,East,6.9,-,0.00,,Clear,100,2013-07-21 00:53:00
8:53 PM,75.0,69.1,82,29.84,10.0,ENE,4.6,-,N/A,,Scattered Clouds,60,2013-07-21 01:53:00
9:53 PM,73.9,70.0,87,29.89,10.0,Calm,Calm,-,0.00,,Clear,0,2013-07-21 02:53:00
10:53 PM,73.0,69.1,87,29.91,10.0,Calm,Calm,-,N/A,,Partly Cloudy,0,2013-07-21 03:53:00
11:53 PM,73.0,69.1,87,29.91,10.0,Calm,Calm,-,N/A,,Clear,0,2013-07-21 04:53:00